When you browse on this site, cookies collect data to enhance your experience and personalize the content and advertising you see.
Visit our Privacy Policy to learn more. By continuing to use the site, you agree to this use of cookies and data.
  • In Österreich
  • Länderverzeichnis
  • Für 7 Tage
  • Wassertemperatur
  • Wetterkarte
  • News
  • Widgets
  • user-avatar
    Anmelden

    Stündliche Wetter Köln

    Heute, 27 Mai, Mittwoch

    Zeit Temperatur Niederschläge Wind Luftdruck Luftfeuchtigkeit
    00:00 +14°C° 0 mm 1 m/S 770 mmHg 80%
    01:00 +13°C° 0 mm 1 m/S 770 mmHg 81%
    02:00 +13°C° 0 mm 1 m/S 770 mmHg 82%
    03:00 +12°C° 0 mm 1 m/S 770 mmHg 83%
    04:00 +14°C° 0 mm 1 m/S 770 mmHg 78%
    05:00 +15°C° 0 mm 1 m/S 770 mmHg 74%
    06:00 +15°C° 0 mm 0 m/S 770 mmHg 70%
    07:00 +17°C° 0 mm 0 m/S 770 mmHg 64%
    08:00 +18°C° 0 mm 0 m/S 770 mmHg 59%
    09:00 +20°C° 0 mm 0 m/S 770 mmHg 53%
    10:00 +23°C° 0 mm 1 m/S 769 mmHg 50%
    11:00 +24°C° 0 mm 2 m/S 769 mmHg 46%
    12:00 +25°C° 0 mm 2 m/S 769 mmHg 43%
    13:00 +24°C° 0 mm 2 m/S 768 mmHg 46%
    14:00 +24°C° 0 mm 3 m/S 768 mmHg 48%
    15:00 +24°C° 0 mm 3 m/S 768 mmHg 51%
    16:00 +22°C° 0 mm 4 m/S 768 mmHg 55%
    17:00 +21°C° 0 mm 4 m/S 768 mmHg 58%
    18:00 +20°C° 0 mm 4 m/S 768 mmHg 62%
    19:00 +19°C° 0 mm 3 m/S 768 mmHg 67%
    20:00 +17°C° 0 mm 3 m/S 769 mmHg 72%
    21:00 +14°C° 0 mm 3 m/S 769 mmHg 77%
    22:00 +14°C° 0 mm 3 m/S 769 mmHg 76%
    23:00 +13°C° 0 mm 3 m/S 769 mmHg 75%

    Morgen, 28 Mai, Donnerstag

    Zeit Temperatur Niederschläge Wind Luftdruck Luftfeuchtigkeit
    00:00 +12°C° 0 mm 3 m/S 770 mmHg 74%
    01:00 +11°C° 0 mm 3 m/S 770 mmHg 76%
    02:00 +10°C° 0 mm 3 m/S 770 mmHg 77%
    03:00 +9°C° 0 mm 3 m/S 770 mmHg 79%
    04:00 +10°C° 0 mm 3 m/S 770 mmHg 75%
    05:00 +11°C° 0 mm 3 m/S 770 mmHg 71%
    06:00 +11°C° 0 mm 3 m/S 770 mmHg 68%
    07:00 +13°C° 0 mm 3 m/S 769 mmHg 61%
    08:00 +16°C° 0 mm 3 m/S 769 mmHg 54%
    09:00 +17°C° 0 mm 3 m/S 769 mmHg 47%
    10:00 +18°C° 0 mm 3 m/S 769 mmHg 45%
    11:00 +19°C° 0 mm 3 m/S 769 mmHg 42%
    12:00 +20°C° 0 mm 4 m/S 768 mmHg 39%
    13:00 +20°C° 0 mm 4 m/S 768 mmHg 39%
    14:00 +21°C° 0 mm 4 m/S 767 mmHg 39%
    15:00 +21°C° 0 mm 4 m/S 767 mmHg 38%
    16:00 +20°C° 0 mm 4 m/S 767 mmHg 43%
    17:00 +19°C° 0 mm 4 m/S 767 mmHg 47%
    18:00 +18°C° 0 mm 3 m/S 766 mmHg 52%
    19:00 +16°C° 0 mm 3 m/S 767 mmHg 57%
    20:00 +14°C° 0 mm 3 m/S 767 mmHg 62%
    21:00 +12°C° 0 mm 3 m/S 767 mmHg 67%
    22:00 +11°C° 0 mm 3 m/S 767 mmHg 70%
    23:00 +10°C° 0 mm 2 m/S 767 mmHg 74%

    übermorgen, 29 Mai, Freitag

    Zeit Temperatur Niederschläge Wind Luftdruck Luftfeuchtigkeit
    00:00 +9°C° 0 mm 2 m/S 767 mmHg 77%
    01:00 +8°C° 0 mm 2 m/S 767 mmHg 78%
    02:00 +8°C° 0 mm 2 m/S 767 mmHg 80%
    03:00 +8°C° 0 mm 1 m/S 767 mmHg 81%
    04:00 +10°C° 0 mm 1 m/S 767 mmHg 77%
    05:00 +11°C° 0 mm 1 m/S 766 mmHg 74%
    06:00 +12°C° 0 mm 1 m/S 766 mmHg 70%
    07:00 +14°C° 0 mm 1 m/S 766 mmHg 62%
    08:00 +16°C° 0 mm 2 m/S 766 mmHg 55%
    09:00 +19°C° 0 mm 2 m/S 766 mmHg 48%
    10:00 +20°C° 0 mm 2 m/S 765 mmHg 44%
    11:00 +21°C° 0 mm 3 m/S 765 mmHg 41%
    12:00 +22°C° 0 mm 3 m/S 764 mmHg 37%
    13:00 +22°C° 0 mm 3 m/S 764 mmHg 38%
    14:00 +22°C° 0 mm 4 m/S 763 mmHg 38%
    15:00 +23°C° 0 mm 4 m/S 763 mmHg 39%
    16:00 +22°C° 0 mm 4 m/S 763 mmHg 42%
    17:00 +20°C° 0 mm 4 m/S 763 mmHg 46%
    18:00 +19°C° 0 mm 4 m/S 762 mmHg 50%
    19:00 +18°C° 0 mm 4 m/S 763 mmHg 53%
    20:00 +16°C° 0 mm 3 m/S 763 mmHg 56%
    21:00 +14°C° 0 mm 3 m/S 763 mmHg 59%
    22:00 +13°C° 0 mm 3 m/S 763 mmHg 62%
    23:00 +12°C° 0 mm 3 m/S 764 mmHg 65%

    30 Mai, Samstag

    Zeit Temperatur Niederschläge Wind Luftdruck Luftfeuchtigkeit
    00:00 +12°C° 0 mm 2 m/S 764 mmHg 68%
    01:00 +10°C° 0 mm 2 m/S 764 mmHg 69%
    02:00 +10°C° 0 mm 2 m/S 764 mmHg 71%
    03:00 +9°C° 0 mm 2 m/S 764 mmHg 72%
    04:00 +12°C° 0 mm 2 m/S 764 mmHg 68%
    05:00 +13°C° 0 mm 2 m/S 764 mmHg 64%
    06:00 +14°C° 0 mm 2 m/S 764 mmHg 60%
    07:00 +16°C° 0 mm 2 m/S 764 mmHg 53%
    08:00 +17°C° 0 mm 3 m/S 763 mmHg 45%
    09:00 +19°C° 0 mm 3 m/S 763 mmHg 38%
    10:00 +20°C° 0 mm 3 m/S 763 mmHg 37%
    11:00 +21°C° 0 mm 3 m/S 763 mmHg 35%
    12:00 +22°C° 0 mm 3 m/S 762 mmHg 34%
    13:00 +22°C° 0 mm 3 m/S 762 mmHg 36%
    14:00 +22°C° 0 mm 3 m/S 762 mmHg 38%
    15:00 +22°C° 0 mm 3 m/S 761 mmHg 39%
    16:00 +21°C° 0 mm 3 m/S 761 mmHg 44%
    17:00 +20°C° 0 mm 3 m/S 761 mmHg 48%
    18:00 +20°C° 0 mm 3 m/S 761 mmHg 52%
    19:00 +18°C° 0 mm 3 m/S 761 mmHg 58%
    20:00 +16°C° 0 mm 2 m/S 762 mmHg 63%
    21:00 +15°C° 0 mm 2 m/S 762 mmHg 68%
    22:00 +14°C° 0 mm 2 m/S 762 mmHg 72%
    23:00 +13°C° 0 mm 1 m/S 762 mmHg 76%

    31 Mai, Sonntag

    Zeit Temperatur Niederschläge Wind Luftdruck Luftfeuchtigkeit
    00:00 +13°C° 0 mm 1 m/S 762 mmHg 79%
    01:00 +12°C° 0 mm 1 m/S 762 mmHg 80%
    02:00 +12°C° 0 mm 1 m/S 762 mmHg 81%
    03:00 +10°C° 0 mm 0 m/S 762 mmHg 82%
    04:00 +13°C° 0 mm 1 m/S 762 mmHg 77%
    05:00 +14°C° 0 mm 1 m/S 762 mmHg 72%
    06:00 +15°C° 0 mm 1 m/S 762 mmHg 66%
    07:00 +17°C° 0 mm 2 m/S 762 mmHg 57%
    08:00 +18°C° 0 mm 2 m/S 762 mmHg 48%
    09:00 +20°C° 0 mm 3 m/S 762 mmHg 39%
    10:00 +20°C° 0 mm 3 m/S 761 mmHg 37%
    11:00 +21°C° 0 mm 3 m/S 761 mmHg 35%
    12:00 +22°C° 0 mm 3 m/S 761 mmHg 32%
    13:00 +22°C° 0 mm 3 m/S 761 mmHg 35%
    14:00 +22°C° 0 mm 3 m/S 760 mmHg 38%
    15:00 +22°C° 0 mm 3 m/S 760 mmHg 40%
    16:00 +21°C° 0 mm 3 m/S 760 mmHg 46%
    17:00 +21°C° 0 mm 3 m/S 760 mmHg 51%
    18:00 +20°C° 0 mm 3 m/S 760 mmHg 56%
    19:00 +18°C° 0 mm 3 m/S 760 mmHg 61%
    20:00 +17°C° 0 mm 2 m/S 760 mmHg 66%
    21:00 +15°C° 0 mm 2 m/S 761 mmHg 71%
    22:00 +15°C° 0 mm 2 m/S 761 mmHg 74%
    23:00 +14°C° 0 mm 1 m/S 761 mmHg 77%

    1 Juni, Montag

    Zeit Temperatur Niederschläge Wind Luftdruck Luftfeuchtigkeit
    00:00 +13°C° 0 mm 1 m/S 761 mmHg 80%
    01:00 +13°C° 0 mm 1 m/S 760 mmHg 81%
    02:00 +12°C° 0 mm 1 m/S 760 mmHg 82%
    03:00 +12°C° 0 mm 1 m/S 760 mmHg 82%
    04:00 +13°C° 0 mm 1 m/S 760 mmHg 78%
    05:00 +14°C° 0 mm 1 m/S 760 mmHg 74%
    06:00 +15°C° 0 mm 1 m/S 760 mmHg 69%
    07:00 +18°C° 0 mm 1 m/S 760 mmHg 63%
    08:00 +20°C° 0 mm 1 m/S 760 mmHg 58%
    09:00 +22°C° 0 mm 1 m/S 759 mmHg 52%
    10:00 +23°C° 0 mm 1 m/S 759 mmHg 49%
    11:00 +24°C° 0 mm 1 m/S 759 mmHg 47%
    12:00 +25°C° 0 mm 1 m/S 758 mmHg 45%
    13:00 +25°C° 0 mm 1 m/S 758 mmHg 45%
    14:00 +25°C° 0 mm 2 m/S 757 mmHg 45%
    15:00 +25°C° 0 mm 2 m/S 757 mmHg 45%
    16:00 +25°C° 0 mm 2 m/S 757 mmHg 50%
    17:00 +24°C° 0 mm 2 m/S 756 mmHg 56%
    18:00 +24°C° 0 mm 2 m/S 756 mmHg 61%
    19:00 +21°C° 0 mm 2 m/S 757 mmHg 66%
    20:00 +20°C° 0 mm 2 m/S 757 mmHg 71%
    21:00 +18°C° 0 mm 3 m/S 757 mmHg 77%
    22:00 +18°C° 0 mm 3 m/S 757 mmHg 78%
    23:00 +17°C° 0 mm 3 m/S 757 mmHg 80%
    Mehr zeigen